• In Deutschland
  • Länderverzeichnis
  • Für 7 Tage
  • Wassertemperatur
  • Satellitenkarten
  • Wetterkarte
  • Widgets
  • user-avatar
    Anmelden

    Stündliche Wetter Baden-Wurttemberg

    Heute, 17 Oktober, Dienstag

    Zeit Temperatur Niederschläge Wind Luftdruck Luftfeuchtigkeit
    00:00 +14°C° 0 mm 2 m/S 741 mmHg 76%
    01:00 +15°C° 0 mm 2 m/S 741 mmHg 73%
    02:00 +14°C° 0 mm 2 m/S 741 mmHg 73%
    03:00 +14°C° 0 mm 1 m/S 741 mmHg 72%
    04:00 +14°C° 0 mm 1 m/S 741 mmHg 72%
    05:00 +13°C° 0 mm 1 m/S 741 mmHg 72%
    06:00 +13°C° 0 mm 1 m/S 741 mmHg 71%
    07:00 +12°C° 0 mm 1 m/S 741 mmHg 67%
    08:00 +14°C° 0 mm 1 m/S 741 mmHg 62%
    09:00 +16°C° 0 mm 1 m/S 741 mmHg 58%
    10:00 +20°C° 0 mm 1 m/S 741 mmHg 53%
    11:00 +21°C° 0 mm 1 m/S 740 mmHg 50%
    12:00 +20°C° 0 mm 0 m/S 740 mmHg 47%
    13:00 +21°C° 0 mm 0 m/S 740 mmHg 44%
    14:00 +21°C° 0 mm 0 m/S 739 mmHg 48%
    15:00 +21°C° 0 mm 0 m/S 738 mmHg 52%
    16:00 +20°C° 0 mm 0 m/S 738 mmHg 57%
    17:00 +18°C° 0 mm 0 m/S 738 mmHg 61%
    18:00 +16°C° 0 mm 0 m/S 738 mmHg 65%
    19:00 +14°C° 0 mm 0 m/S 737 mmHg 69%
    20:00 +14°C° 0 mm 1 m/S 737 mmHg 70%
    21:00 +14°C° 0 mm 1 m/S 737 mmHg 71%
    22:00 +14°C° 0 mm 1 m/S 737 mmHg 72%
    23:00 +13°C° 0 mm 1 m/S 737 mmHg 71%

    Morgen, 18 Oktober, Mittwoch

    Zeit Temperatur Niederschläge Wind Luftdruck Luftfeuchtigkeit
    00:00 +13°C° 0 mm 1 m/S 737 mmHg 71%
    01:00 +13°C° 0 mm 1 m/S 737 mmHg 70%
    02:00 +13°C° 0 mm 1 m/S 736 mmHg 69%
    03:00 +13°C° 0 mm 1 m/S 736 mmHg 69%
    04:00 +12°C° 0 mm 1 m/S 736 mmHg 68%
    05:00 +12°C° 0 mm 1 m/S 736 mmHg 68%
    06:00 +12°C° 0 mm 1 m/S 736 mmHg 67%
    07:00 +12°C° 0 mm 1 m/S 735 mmHg 66%
    08:00 +14°C° 0 mm 1 m/S 735 mmHg 62%
    09:00 +16°C° 0 mm 1 m/S 735 mmHg 57%
    10:00 +19°C° 0 mm 1 m/S 735 mmHg 53%
    11:00 +21°C° 0 mm 1 m/S 735 mmHg 49%
    12:00 +22°C° 0 mm 1 m/S 735 mmHg 46%
    13:00 +23°C° 0 mm 1 m/S 735 mmHg 43%
    14:00 +22°C° 0 mm 1 m/S 734 mmHg 48%
    15:00 +22°C° 0 mm 1 m/S 734 mmHg 52%
    16:00 +21°C° 0 mm 1 m/S 734 mmHg 57%
    17:00 +19°C° 0 mm 1 m/S 734 mmHg 62%
    18:00 +16°C° 0 mm 1 m/S 734 mmHg 67%
    19:00 +14°C° 0 mm 1 m/S 734 mmHg 72%
    20:00 +13°C° 0 mm 1 m/S 734 mmHg 73%
    21:00 +13°C° 0 mm 1 m/S 734 mmHg 75%
    22:00 +13°C° 0 mm 1 m/S 734 mmHg 76%
    23:00 +12°C° 0 mm 1 m/S 734 mmHg 77%

    übermorgen, 19 Oktober, Donnerstag

    Zeit Temperatur Niederschläge Wind Luftdruck Luftfeuchtigkeit
    00:00 +12°C° 0 mm 1 m/S 734 mmHg 78%
    01:00 +12°C° 0 mm 1 m/S 734 mmHg 78%
    02:00 +11°C° 0 mm 1 m/S 734 mmHg 79%
    03:00 +11°C° 0 mm 1 m/S 733 mmHg 79%
    04:00 +11°C° 0 mm 1 m/S 733 mmHg 80%
    05:00 +11°C° 0 mm 1 m/S 733 mmHg 80%
    06:00 +11°C° 0 mm 1 m/S 733 mmHg 80%
    07:00 +10°C° 0 mm 1 m/S 733 mmHg 81%
    08:00 +13°C° 0 mm 1 m/S 733 mmHg 75%
    09:00 +15°C° 0 mm 1 m/S 733 mmHg 69%
    10:00 +17°C° 0 mm 2 m/S 733 mmHg 63%
    11:00 +18°C° 0 mm 2 m/S 733 mmHg 59%
    12:00 +20°C° 0 mm 2 m/S 733 mmHg 56%
    13:00 +21°C° 0 mm 2 m/S 733 mmHg 52%
    14:00 +20°C° 0 mm 2 m/S 732 mmHg 57%
    15:00 +20°C° 0 mm 2 m/S 732 mmHg 61%
    16:00 +20°C° 0 mm 2 m/S 732 mmHg 65%
    17:00 +18°C° 0 mm 2 m/S 732 mmHg 71%
    18:00 +16°C° 0 mm 2 m/S 732 mmHg 78%
    19:00 +14°C° 0 mm 2 m/S 732 mmHg 84%
    20:00 +13°C° 0 mm 2 m/S 732 mmHg 85%
    21:00 +12°C° 0 mm 1 m/S 732 mmHg 87%
    22:00 +12°C° 0 mm 1 m/S 733 mmHg 88%
    23:00 +12°C° 0 mm 1 m/S 733 mmHg 89%

    20 Oktober, Freitag

    Zeit Temperatur Niederschläge Wind Luftdruck Luftfeuchtigkeit
    00:00 +11°C° 0 mm 1 m/S 733 mmHg 89%
    01:00 +11°C° 0 mm 1 m/S 733 mmHg 90%
    02:00 +11°C° 0 mm 1 m/S 733 mmHg 89%
    03:00 +11°C° 0 mm 1 m/S 733 mmHg 89%
    04:00 +11°C° 0 mm 1 m/S 733 mmHg 89%
    05:00 +11°C° 0 mm 1 m/S 733 mmHg 88%
    06:00 +11°C° 0 mm 1 m/S 733 mmHg 87%
    07:00 +11°C° 0 mm 1 m/S 734 mmHg 87%
    08:00 +13°C° 0 mm 1 m/S 734 mmHg 79%
    09:00 +15°C° 0 mm 1 m/S 734 mmHg 72%
    10:00 +18°C° 0 mm 1 m/S 734 mmHg 64%
    11:00 +19°C° 0 mm 1 m/S 734 mmHg 60%
    12:00 +21°C° 0 mm 1 m/S 735 mmHg 56%
    13:00 +22°C° 0 mm 1 m/S 735 mmHg 52%
    14:00 +22°C° 0 mm 1 m/S 734 mmHg 55%
    15:00 +21°C° 0 mm 1 m/S 734 mmHg 58%
    16:00 +21°C° 0 mm 1 m/S 734 mmHg 61%
    17:00 +19°C° 0 mm 1 m/S 734 mmHg 66%
    18:00 +16°C° 0 mm 1 m/S 735 mmHg 72%
    19:00 +15°C° 0 mm 1 m/S 735 mmHg 77%
    20:00 +14°C° 0 mm 2 m/S 735 mmHg 78%
    21:00 +14°C° 0 mm 2 m/S 735 mmHg 79%
    22:00 +13°C° 0 mm 2 m/S 735 mmHg 81%
    23:00 +13°C° 0 mm 2 m/S 735 mmHg 80%

    21 Oktober, Samstag

    Zeit Temperatur Niederschläge Wind Luftdruck Luftfeuchtigkeit
    00:00 +13°C° 0 mm 1 m/S 735 mmHg 80%
    01:00 +13°C° 0 mm 1 m/S 735 mmHg 80%
    02:00 +13°C° 0 mm 2 m/S 735 mmHg 79%
    03:00 +13°C° 0 mm 2 m/S 735 mmHg 78%
    04:00 +13°C° 0 mm 2 m/S 735 mmHg 77%
    05:00 +13°C° 0 mm 2 m/S 735 mmHg 76%
    06:00 +13°C° 0 mm 2 m/S 735 mmHg 76%
    07:00 +13°C° 0 mm 2 m/S 735 mmHg 75%
    08:00 +15°C° 0 mm 2 m/S 735 mmHg 71%
    09:00 +17°C° 0 mm 2 m/S 735 mmHg 67%
    10:00 +18°C° 0 mm 3 m/S 735 mmHg 62%
    11:00 +19°C° 0 mm 3 m/S 735 mmHg 59%
    12:00 +21°C° 0 mm 3 m/S 735 mmHg 55%
    13:00 +22°C° 0 mm 4 m/S 734 mmHg 52%
    14:00 +21°C° 0 mm 3 m/S 735 mmHg 57%
    15:00 +20°C° 0 mm 3 m/S 735 mmHg 62%
    16:00 +19°C° 0 mm 2 m/S 735 mmHg 67%
    17:00 +18°C° 0,1 mm 2 m/S 735 mmHg 74%
    18:00 +16°C° 0,1 mm 2 m/S 735 mmHg 81%
    19:00 +15°C° 0,1 mm 2 m/S 736 mmHg 88%
    20:00 +15°C° 0,5 mm 2 m/S 736 mmHg 89%
    21:00 +14°C° 0,5 mm 2 m/S 736 mmHg 89%
    22:00 +14°C° 0,5 mm 2 m/S 737 mmHg 90%
    23:00 +14°C° 0,2 mm 2 m/S 737 mmHg 90%

    22 Oktober, Sonntag

    Zeit Temperatur Niederschläge Wind Luftdruck Luftfeuchtigkeit
    00:00 +13°C° 0,2 mm 2 m/S 737 mmHg 89%
    01:00 +13°C° 0,2 mm 2 m/S 736 mmHg 89%
    02:00 +12°C° 0,6 mm 2 m/S 737 mmHg 90%
    03:00 +11°C° 0,6 mm 3 m/S 737 mmHg 91%
    04:00 +11°C° 0,6 mm 3 m/S 737 mmHg 92%
    05:00 +10°C° 0,5 mm 3 m/S 737 mmHg 92%
    06:00 +10°C° 0,5 mm 3 m/S 737 mmHg 92%
    07:00 +10°C° 0,5 mm 3 m/S 737 mmHg 92%
    08:00 +10°C° 0,4 mm 3 m/S 737 mmHg 90%
    09:00 +10°C° 0,4 mm 3 m/S 738 mmHg 88%
    10:00 +10°C° 0,4 mm 4 m/S 738 mmHg 86%
    11:00 +10°C° 0,2 mm 4 m/S 738 mmHg 84%
    12:00 +11°C° 0,2 mm 4 m/S 738 mmHg 81%
    13:00 +11°C° 0,2 mm 4 m/S 739 mmHg 79%
    14:00 +11°C° 0,1 mm 4 m/S 739 mmHg 78%
    15:00 +11°C° 0,1 mm 4 m/S 739 mmHg 76%
    16:00 +11°C° 0,1 mm 4 m/S 739 mmHg 74%
    17:00 +10°C° 0 mm 3 m/S 739 mmHg 78%
    18:00 +9°C° 0 mm 3 m/S 740 mmHg 81%
    19:00 +7°C° 0 mm 3 m/S 740 mmHg 85%
    20:00 +7°C° 0 mm 3 m/S 741 mmHg 85%
    21:00 +7°C° 0 mm 3 m/S 741 mmHg 86%
    22:00 +7°C° 0 mm 3 m/S 741 mmHg 86%
    23:00 +5°C° 0 mm 3 m/S 742 mmHg 87%
    Mehr zeigen